QPF
0.07 0.06 0.04 0.03 0.02 0.02 0.01 0.01 0.02 0.03 0.02 0.01 0.01 0.01 0.02 0.03 0.03 0.04 0.04 0.04 0.04 0.04 0.04 0.05 0.05 0.05 0.04 0.04 0.04 0.04 0.04 0.05 0.04 0.02 0.01 0.01 0.02 0.02 0.02 0.02 0.02 0.02 0.02
0.05 0.04 0.03 0.02 0.02 0.02 0.01 0.01 0.01 0.01 0.01 0.01 0.01 0.01 0.02 0.02 0.03 0.03 0.04 0.04 0.03 0.04 0.04 0.05 0.05 0.05 0.05 0.05 0.05 0.05 0.04 0.05 0.04 0.02 0.01 0.01 0.02 0.02 0.02 0.02 0.01 0.01 0.02
0.02 0.02 0.02 0.02 0.02 0.01 0.01 0.01 0.01 0.01 0.01 0.00 0.01 0.01 0.01 0.02 0.04 0.04 0.05 0.05 0.04 0.06 0.06 0.07 0.08 0.07 0.05 0.05 0.04 0.04 0.04 0.04 0.04 0.03 0.01 0.02 0.02 0.02 0.01 0.01 0.01 0.01 0.01
0.01 0.01 0.02 0.01 0.01 0.02 0.01 0.01 0.00 0.01 0.01 0.00 0.00 0.01 0.01 0.02 0.03 0.04 0.06 0.07 0.07 0.09 0.11 0.13 0.13 0.09 0.07 0.07 0.05 0.05 0.05 0.05 0.04 0.03 0.02 0.02 0.02 0.02 0.02 0.01 0.01 0.01 0.02
0.01 0.01 0.01 0.01 0.01 0.01 0.01 0.01 0.01 0.01 0.01 0.01 0.01 0.02 0.02 0.03 0.03 0.04 0.05 0.07 0.07 0.08 0.10 0.13 0.14 0.12 0.09 0.07 0.05 0.05 0.06 0.06 0.05 0.03 0.02 0.03 0.03 0.03 0.03 0.03 0.03 0.03 0.03
0.00 0.00 0.00 0.00 0.00 0.01 0.01 0.01 0.01 0.01 0.02 0.03 0.04 0.05 0.05 0.06 0.06 0.06 0.06 0.06 0.06 0.06 0.07 0.06 0.07 0.07 0.06 0.05 0.04 0.04 0.05 0.05 0.05 0.04 0.04 0.03 0.03 0.03 0.04 0.04 0.04 0.04 0.04
0.00 0.00 0.00 0.00 0.00 0.00 0.01 0.01 0.02 0.02 0.02 0.03 0.03 0.06 0.07 0.08 0.09 0.09 0.08 0.07 0.06 0.06 0.06 0.05 0.04 0.04 0.03 0.03 0.04 0.04 0.03 0.03 0.03 0.05 0.05 0.05 0.05 0.05 0.05 0.04 0.04 0.05 0.05
0.00 0.00 0.01 0.01 0.01 0.01 0.02 0.02 0.02 0.02 0.03 0.04 0.03 0.04 0.06 0.07 0.07 0.07 0.07 0.06 0.05 0.04 0.04 0.04 0.05 0.05 0.05 0.04 0.05 0.05 0.04 0.04 0.04 0.03 0.04 0.04 0.04 0.05 0.05 0.05 0.05 0.05 0.04
0.01 0.01 0.02 0.02 0.03 0.05 0.07 0.07 0.05 0.04 0.03 0.03 0.03 0.03 0.05 0.07 0.07 0.06 0.05 0.03 0.03 0.02 0.02 0.03 0.03 0.03 0.03 0.04 0.04 0.05 0.04 0.04 0.04 0.04 0.04 0.04 0.04 0.04 0.04 0.04 0.04 0.04 0.03
0.01 0.02 0.02 0.02 0.03 0.06 0.09 0.10 0.07 0.05 0.03 0.02 0.02 0.02 0.04 0.05 0.05 0.04 0.04 0.04 0.03 0.03 0.03 0.03 0.03 0.03 0.04 0.04 0.03 0.04 0.03 0.03 0.03 0.03 0.03 0.04 0.03 0.03 0.03 0.02 0.03 0.03 0.02
0.01 0.01 0.01 0.02 0.02 0.03 0.04 0.04 0.04 0.02 0.02 0.01 0.02 0.02 0.02 0.02 0.02 0.02 0.03 0.04 0.04 0.03 0.04 0.03 0.03 0.04 0.04 0.05 0.05 0.04 0.04 0.05 0.05 0.04 0.03 0.03 0.03 0.02 0.02 0.02 0.02 0.02 0.02
0.02 0.02 0.02 0.02 0.03 0.03 0.04 0.04 0.03 0.02 0.02 0.02 0.02 0.02 0.02 0.02 0.02 0.02 0.02 0.03 0.03 0.03 0.03 0.03 0.04 0.04 0.04 0.05 0.04 0.03 0.04 0.05 0.04 0.04 0.03 0.02 0.02 0.02 0.02 0.02 0.02 0.02 0.02
0.02 0.02 0.02 0.02 0.02 0.03 0.04 0.04 0.03 0.03 0.03 0.03 0.02 0.02 0.03 0.02 0.03 0.04 0.03 0.03 0.03 0.03 0.02 0.03 0.04 0.03 0.03 0.03 0.03 0.03 0.03 0.03 0.03 0.03 0.02 0.02 0.02 0.02 0.02 0.01 0.01 0.02 0.02
0.02 0.01 0.01 0.01 0.02 0.02 0.03 0.03 0.03 0.03 0.03 0.04 0.03 0.03 0.03 0.03 0.04 0.04 0.05 0.05 0.04 0.02 0.02 0.03 0.02 0.02 0.02 0.02 0.02 0.02 0.02 0.02 0.03 0.03 0.03 0.02 0.02 0.02 0.01 0.01 0.01 0.02 0.02
0.02 0.01 0.01 0.02 0.02 0.02 0.02 0.02 0.03 0.03 0.04 0.04 0.04 0.05 0.05 0.04 0.05 0.06 0.05 0.05 0.04 0.03 0.03 0.02 0.02 0.02 0.02 0.02 0.02 0.02 0.02 0.02 0.02 0.02 0.03 0.02 0.02 0.01 0.01 0.01 0.02 0.02 0.01
0.03 0.02 0.02 0.02 0.02 0.02 0.02 0.02 0.04 0.04 0.04 0.05 0.06 0.07 0.08 0.08 0.08 0.08 0.08 0.05 0.04 0.03 0.03 0.02 0.02 0.02 0.02 0.02 0.02 0.02 0.02 0.02 0.02 0.02 0.02 0.02 0.02 0.02 0.02 0.02 0.02 0.02 0.02
0.04 0.04 0.03 0.03 0.03 0.03 0.02 0.03 0.03 0.05 0.06 0.06 0.06 0.07 0.07 0.08 0.09 0.09 0.08 0.05 0.04 0.03 0.02 0.02 0.02 0.02 0.02 0.02 0.02 0.01 0.01 0.01 0.01 0.02 0.02 0.02 0.03 0.02 0.02 0.02 0.02 0.03 0.03
0.03 0.04 0.04 0.04 0.05 0.04 0.03 0.03 0.03 0.05 0.06 0.06 0.07 0.08 0.08 0.09 0.08 0.08 0.07 0.06 0.05 0.04 0.03 0.03 0.03 0.03 0.03 0.03 0.03 0.02 0.02 0.01 0.01 0.02 0.02 0.02 0.02 0.02 0.02 0.02 0.02 0.02 0.03
0.05 0.04 0.04 0.05 0.05 0.05 0.05 0.04 0.05 0.07 0.07 0.06 0.05 0.04 0.05 0.05 0.05 0.05 0.05 0.04 0.04 0.04 0.03 0.04 0.04 0.04 0.04 0.04 0.04 0.03 0.03 0.02 0.02 0.02 0.02 0.03 0.03 0.03 0.03 0.02 0.02 0.02 0.02
0.08 0.09 0.09 0.08 0.08 0.09 0.10 0.09 0.08 0.09 0.08 0.05 0.05 0.04 0.03 0.04 0.04 0.04 0.04 0.05 0.05 0.05 0.04 0.04 0.03 0.03 0.04 0.04 0.04 0.04 0.03 0.02 0.02 0.02 0.02 0.02 0.02 0.03 0.03 0.03 0.03 0.02 0.02
0.10 0.12 0.13 0.12 0.11 0.10 0.10 0.10 0.08 0.06 0.05 0.05 0.04 0.04 0.04 0.04 0.05 0.05 0.05 0.06 0.06 0.06 0.06 0.05 0.04 0.04 0.04 0.04 0.04 0.03 0.03 0.03 0.02 0.02 0.02 0.02 0.01 0.02 0.02 0.02 0.03 0.02 0.02
0.12 0.11 0.10 0.10 0.10 0.10 0.08 0.07 0.06 0.04 0.04 0.04 0.04 0.04 0.04 0.03 0.04 0.04 0.04 0.03 0.03 0.03 0.04 0.03 0.03 0.04 0.04 0.04 0.04 0.03 0.03 0.02 0.02 0.02 0.02 0.02 0.02 0.02 0.01 0.01 0.02 0.02 0.02
0.09 0.08 0.07 0.07 0.06 0.06 0.05 0.05 0.04 0.05 0.05 0.05 0.04 0.04 0.03 0.03 0.03 0.03 0.03 0.03 0.03 0.02 0.03 0.03 0.03 0.04 0.03 0.03 0.03 0.03 0.03 0.03 0.03 0.03 0.03 0.03 0.02 0.02 0.02 0.02 0.02 0.02 0.02
0.04 0.04 0.04 0.04 0.04 0.03 0.03 0.04 0.04 0.04 0.04 0.04 0.04 0.04 0.03 0.03 0.03 0.03 0.03 0.03 0.03 0.02 0.02 0.03 0.04 0.03 0.03 0.03 0.03 0.04 0.05 0.04 0.04 0.04 0.04 0.04 0.04 0.04 0.03 0.03 0.03 0.02 0.02
0.04 0.04 0.04 0.04 0.04 0.03 0.03 0.04 0.05 0.05 0.04 0.04 0.04 0.03 0.03 0.03 0.03 0.03 0.03 0.03 0.03 0.02 0.02 0.02 0.03 0.03 0.03 0.03 0.03 0.04 0.05 0.06 0.06 0.06 0.06 0.06 0.05 0.05 0.05 0.04 0.04 0.03 0.03
0.06 0.07 0.07 0.07 0.06 0.05 0.05 0.05 0.05 0.04 0.04 0.03 0.03 0.03 0.04 0.04 0.04 0.04 0.04 0.04 0.04 0.03 0.03 0.03 0.03 0.03 0.03 0.03 0.04 0.04 0.05 0.04 0.05 0.06 0.07 0.07 0.07 0.07 0.06 0.05 0.04 0.04 0.04
MSLP
1010.61 1010.98 1011.35 1011.69 1011.97 1012.18 1012.33 1012.42 1012.48 1012.53 1012.60 1012.69 1012.80 1012.92 1013.00 1013.03 1012.98 1012.84 1012.62 1012.34 1012.04 1011.77 1011.57 1011.46 1011.47 1011.59 1011.80 1012.09 1012.40 1012.68 1012.92 1013.08 1013.16 1013.16 1013.10 1013.00 1012.88 1012.78 1012.71 1012.69 1012.72 1012.80 1012.92
1010.12 1010.47 1010.82 1011.17 1011.48 1011.73 1011.94 1012.10 1012.22 1012.34 1012.46 1012.59 1012.73 1012.84 1012.92 1012.93 1012.85 1012.68 1012.42 1012.09 1011.75 1011.42 1011.16 1011.00 1010.95 1011.03 1011.22 1011.50 1011.83 1012.16 1012.46 1012.70 1012.87 1012.96 1012.99 1012.95 1012.89 1012.81 1012.75 1012.70 1012.69 1012.71 1012.77
1009.82 1010.14 1010.48 1010.83 1011.15 1011.44 1011.69 1011.90 1012.08 1012.24 1012.40 1012.56 1012.70 1012.81 1012.88 1012.86 1012.76 1012.57 1012.29 1011.94 1011.57 1011.22 1010.92 1010.72 1010.64 1010.68 1010.83 1011.08 1011.39 1011.71 1012.03 1012.30 1012.52 1012.66 1012.74 1012.76 1012.74 1012.69 1012.64 1012.59 1012.56 1012.54 1012.55
1009.73 1010.03 1010.36 1010.69 1011.01 1011.31 1011.58 1011.82 1012.03 1012.22 1012.39 1012.55 1012.69 1012.79 1012.83 1012.80 1012.68 1012.48 1012.19 1011.86 1011.49 1011.15 1010.85 1010.64 1010.53 1010.54 1010.66 1010.86 1011.12 1011.41 1011.70 1011.96 1012.17 1012.33 1012.42 1012.47 1012.48 1012.45 1012.41 1012.37 1012.33 1012.29 1012.26
1009.84 1010.12 1010.43 1010.74 1011.04 1011.33 1011.59 1011.83 1012.04 1012.22 1012.39 1012.54 1012.65 1012.72 1012.74 1012.69 1012.57 1012.37 1012.10 1011.80 1011.47 1011.16 1010.90 1010.71 1010.61 1010.61 1010.69 1010.85 1011.06 1011.29 1011.52 1011.73 1011.90 1012.02 1012.10 1012.14 1012.15 1012.14 1012.11 1012.07 1012.02 1011.97 1011.92
1010.11 1010.38 1010.65 1010.93 1011.20 1011.45 1011.68 1011.88 1012.06 1012.22 1012.36 1012.47 1012.56 1012.60 1012.59 1012.53 1012.40 1012.22 1011.99 1011.73 1011.47 1011.22 1011.02 1010.88 1010.82 1010.82 1010.90 1011.02 1011.18 1011.34 1011.50 1011.63 1011.73 1011.80 1011.83 1011.84 1011.83 1011.81 1011.77 1011.73 1011.67 1011.61 1011.53
1010.48 1010.73 1010.98 1011.21 1011.42 1011.62 1011.79 1011.95 1012.08 1012.19 1012.29 1012.36 1012.41 1012.42 1012.39 1012.32 1012.20 1012.04 1011.86 1011.65 1011.46 1011.30 1011.17 1011.10 1011.09 1011.13 1011.21 1011.32 1011.43 1011.53 1011.62 1011.67 1011.69 1011.68 1011.65 1011.61 1011.56 1011.51 1011.45 1011.40 1011.33 1011.25 1011.16
1010.91 1011.13 1011.33 1011.51 1011.67 1011.80 1011.91 1012.00 1012.07 1012.13 1012.18 1012.22 1012.23 1012.22 1012.18 1012.10 1012.00 1011.87 1011.72 1011.58 1011.46 1011.37 1011.33 1011.33 1011.37 1011.45 1011.55 1011.66 1011.75 1011.80 1011.83 1011.81 1011.76 1011.68 1011.58 1011.48 1011.38 1011.28 1011.20 1011.12 1011.04 1010.94 1010.83
1011.32 1011.52 1011.68 1011.80 1011.89 1011.95 1011.99 1012.02 1012.04 1012.06 1012.08 1012.09 1012.08 1012.06 1012.02 1011.95 1011.86 1011.75 1011.65 1011.55 1011.48 1011.46 1011.47 1011.53 1011.63 1011.75 1011.87 1011.98 1012.05 1012.08 1012.07 1012.00 1011.89 1011.75 1011.59 1011.43 1011.29 1011.16 1011.04 1010.94 1010.84 1010.72 1010.59
1011.71 1011.87 1011.98 1012.05 1012.08 1012.07 1012.05 1012.03 1012.02 1012.01 1012.01 1012.01 1012.01 1012.00 1011.96 1011.91 1011.84 1011.75 1011.67 1011.60 1011.56 1011.57 1011.61 1011.71 1011.83 1011.97 1012.11 1012.22 1012.30 1012.32 1012.28 1012.18 1012.03 1011.85 1011.66 1011.46 1011.28 1011.12 1010.98 1010.85 1010.74 1010.61 1010.47
1012.03 1012.16 1012.22 1012.23 1012.21 1012.15 1012.09 1012.04 1012.00 1011.99 1012.00 1012.02 1012.04 1012.06 1012.05 1012.02 1011.97 1011.90 1011.82 1011.76 1011.72 1011.72 1011.76 1011.85 1011.97 1012.11 1012.25 1012.37 1012.44 1012.46 1012.41 1012.31 1012.15 1011.96 1011.75 1011.54 1011.34 1011.16 1011.01 1010.87 1010.74 1010.61 1010.46
1012.29 1012.37 1012.39 1012.35 1012.28 1012.19 1012.10 1012.03 1012.00 1012.00 1012.04 1012.10 1012.17 1012.23 1012.27 1012.27 1012.24 1012.17 1012.09 1012.01 1011.94 1011.91 1011.92 1011.97 1012.06 1012.18 1012.30 1012.40 1012.48 1012.49 1012.46 1012.36 1012.22 1012.04 1011.84 1011.63 1011.44 1011.26 1011.10 1010.96 1010.83 1010.70 1010.56
1012.48 1012.51 1012.48 1012.40 1012.28 1012.16 1012.05 1011.99 1011.97 1012.01 1012.10 1012.22 1012.35 1012.46 1012.55 1012.59 1012.58 1012.52 1012.42 1012.31 1012.20 1012.12 1012.07 1012.07 1012.10 1012.17 1012.26 1012.35 1012.41 1012.44 1012.42 1012.34 1012.23 1012.07 1011.90 1011.72 1011.54 1011.37 1011.23 1011.10 1010.98 1010.86 1010.73
1012.59 1012.57 1012.49 1012.36 1012.20 1012.06 1011.95 1011.89 1011.90 1011.98 1012.12 1012.30 1012.49 1012.67 1012.81 1012.89 1012.90 1012.85 1012.74 1012.60 1012.44 1012.30 1012.19 1012.12 1012.10 1012.12 1012.16 1012.23 1012.28 1012.32 1012.31 1012.27 1012.19 1012.07 1011.93 1011.78 1011.63 1011.49 1011.36 1011.25 1011.14 1011.03 1010.91
1012.64 1012.56 1012.42 1012.24 1012.04 1011.87 1011.75 1011.70 1011.73 1011.85 1012.04 1012.28 1012.53 1012.77 1012.96 1013.08 1013.12 1013.08 1012.96 1012.80 1012.61 1012.42 1012.25 1012.12 1012.05 1012.02 1012.04 1012.08 1012.13 1012.17 1012.19 1012.18 1012.13 1012.05 1011.95 1011.83 1011.71 1011.59 1011.48 1011.37 1011.27 1011.17 1011.06
1012.62 1012.48 1012.28 1012.04 1011.80 1011.60 1011.46 1011.41 1011.46 1011.60 1011.83 1012.11 1012.41 1012.69 1012.92 1013.08 1013.15 1013.13 1013.02 1012.85 1012.64 1012.43 1012.23 1012.08 1011.97 1011.92 1011.92 1011.95 1012.00 1012.05 1012.09 1012.10 1012.08 1012.04 1011.96 1011.87 1011.77 1011.66 1011.56 1011.46 1011.37 1011.27 1011.16
1012.56 1012.35 1012.08 1011.79 1011.51 1011.27 1011.12 1011.05 1011.10 1011.25 1011.50 1011.80 1012.12 1012.44 1012.70 1012.89 1012.98 1012.98 1012.89 1012.74 1012.54 1012.33 1012.14 1011.99 1011.88 1011.83 1011.83 1011.87 1011.93 1012.00 1012.05 1012.08 1012.08 1012.05 1012.00 1011.91 1011.82 1011.72 1011.62 1011.51 1011.41 1011.30 1011.19
1012.47 1012.19 1011.86 1011.52 1011.19 1010.93 1010.75 1010.67 1010.71 1010.85 1011.09 1011.40 1011.73 1012.05 1012.33 1012.53 1012.65 1012.68 1012.62 1012.49 1012.33 1012.16 1012.00 1011.88 1011.80 1011.78 1011.80 1011.86 1011.94 1012.03 1012.09 1012.14 1012.15 1012.12 1012.06 1011.97 1011.87 1011.76 1011.65 1011.53 1011.42 1011.30 1011.17
1012.36 1012.01 1011.64 1011.26 1010.90 1010.61 1010.41 1010.32 1010.34 1010.48 1010.70 1010.99 1011.30 1011.62 1011.89 1012.10 1012.23 1012.28 1012.25 1012.17 1012.05 1011.93 1011.83 1011.76 1011.74 1011.76 1011.83 1011.93 1012.03 1012.13 1012.21 1012.26 1012.26 1012.23 1012.15 1012.05 1011.93 1011.80 1011.67 1011.54 1011.40 1011.27 1011.13
1012.22 1011.84 1011.44 1011.04 1010.67 1010.37 1010.16 1010.06 1010.07 1010.18 1010.38 1010.64 1010.93 1011.22 1011.47 1011.66 1011.80 1011.86 1011.86 1011.82 1011.76 1011.70 1011.66 1011.66 1011.70 1011.78 1011.90 1012.03 1012.17 1012.29 1012.37 1012.41 1012.41 1012.36 1012.26 1012.14 1011.99 1011.84 1011.69 1011.53 1011.39 1011.24 1011.09
1012.07 1011.68 1011.27 1010.87 1010.51 1010.22 1010.02 1009.92 1009.92 1010.01 1010.19 1010.41 1010.66 1010.91 1011.12 1011.29 1011.41 1011.47 1011.49 1011.49 1011.47 1011.47 1011.49 1011.56 1011.66 1011.80 1011.97 1012.14 1012.30 1012.44 1012.52 1012.56 1012.54 1012.46 1012.35 1012.20 1012.03 1011.86 1011.69 1011.52 1011.37 1011.22 1011.07
1011.89 1011.50 1011.11 1010.74 1010.41 1010.15 1009.97 1009.88 1009.88 1009.96 1010.11 1010.30 1010.50 1010.70 1010.87 1011.00 1011.09 1011.14 1011.16 1011.17 1011.19 1011.23 1011.30 1011.42 1011.58 1011.77 1011.98 1012.18 1012.37 1012.51 1012.60 1012.63 1012.60 1012.51 1012.37 1012.20 1012.02 1011.83 1011.66 1011.49 1011.34 1011.19 1011.05
1011.67 1011.31 1010.95 1010.62 1010.34 1010.12 1009.98 1009.91 1009.92 1009.99 1010.11 1010.26 1010.41 1010.56 1010.67 1010.75 1010.80 1010.82 1010.83 1010.84 1010.87 1010.94 1011.05 1011.20 1011.40 1011.63 1011.87 1012.10 1012.30 1012.45 1012.55 1012.57 1012.53 1012.43 1012.28 1012.11 1011.92 1011.73 1011.55 1011.40 1011.26 1011.13 1011.01
1011.38 1011.07 1010.76 1010.49 1010.26 1010.08 1009.98 1009.93 1009.95 1010.01 1010.11 1010.21 1010.32 1010.40 1010.46 1010.49 1010.49 1010.48 1010.46 1010.46 1010.49 1010.56 1010.69 1010.87 1011.08 1011.33 1011.60 1011.84 1012.06 1012.22 1012.32 1012.35 1012.31 1012.21 1012.06 1011.89 1011.70 1011.52 1011.36 1011.22 1011.09 1010.99 1010.89
1011.04 1010.77 1010.52 1010.29 1010.12 1009.99 1009.91 1009.88 1009.90 1009.95 1010.01 1010.08 1010.14 1010.17 1010.18 1010.15 1010.11 1010.06 1010.01 1010.00 1010.01 1010.09 1010.22 1010.40 1010.63 1010.89 1011.16 1011.42 1011.65 1011.82 1011.93 1011.96 1011.93 1011.84 1011.70 1011.54 1011.36 1011.20 1011.05 1010.93 1010.83 1010.74 1010.66
1010.63 1010.41 1010.21 1010.03 1009.89 1009.79 1009.73 1009.71 1009.72 1009.75 1009.79 1009.82 1009.83 1009.82 1009.78 1009.72 1009.64 1009.56 1009.49 1009.45 1009.46 1009.53 1009.66 1009.84 1010.07 1010.34 1010.62 1010.88 1011.12 1011.30 1011.42 1011.46 1011.44 1011.37 1011.24 1011.09 1010.93 1010.77 1010.64 1010.53 1010.44 1010.37 1010.32
Thickness
5787 5782 5778 5774 5772 5768 5765 5762 5760 5758 5756 5754 5752 5751 5749 5748 5747 5745 5745 5744 5742 5741 5740 5738 5735 5735 5735 5734 5732 5731 5729 5725 5720 5722 5722 5719 5715 5713 5711 5709 5708 5706 5703
5785 5781 5776 5772 5770 5766 5763 5761 5759 5756 5755 5753 5751 5749 5748 5747 5745 5743 5741 5741 5740 5739 5737 5736 5734 5733 5731 5730 5728 5726 5724 5722 5719 5715 5716 5714 5711 5709 5707 5705 5704 5703 5700
5783 5778 5774 5770 5767 5763 5761 5758 5756 5754 5752 5751 5749 5747 5745 5744 5742 5741 5739 5738 5737 5736 5735 5733 5732 5730 5727 5726 5723 5722 5721 5720 5717 5714 5712 5711 5708 5705 5702 5701 5700 5697 5696
5779 5775 5770 5767 5764 5761 5758 5755 5753 5751 5749 5747 5745 5744 5742 5741 5740 5738 5736 5735 5734 5733 5732 5731 5730 5727 5724 5722 5720 5717 5716 5714 5713 5710 5709 5707 5704 5701 5698 5696 5694 5692 5691
5774 5770 5767 5764 5761 5758 5754 5752 5749 5747 5745 5743 5741 5740 5739 5738 5737 5734 5732 5731 5729 5728 5727 5726 5725 5723 5720 5718 5718 5715 5712 5711 5709 5706 5705 5704 5701 5696 5694 5693 5690 5688 5685
5768 5765 5763 5760 5757 5753 5750 5748 5745 5742 5739 5738 5736 5735 5734 5734 5730 5727 5726 5726 5724 5722 5720 5720 5719 5717 5714 5711 5709 5707 5706 5704 5703 5702 5701 5698 5695 5693 5690 5688 5685 5682 5679
5762 5759 5757 5754 5751 5749 5747 5743 5740 5737 5735 5732 5731 5730 5729 5727 5723 5721 5719 5719 5719 5717 5715 5713 5714 5714 5710 5708 5704 5700 5699 5696 5695 5695 5694 5692 5690 5688 5684 5682 5679 5677 5675
5755 5753 5752 5749 5745 5743 5740 5737 5735 5732 5729 5727 5726 5725 5723 5721 5718 5715 5713 5713 5713 5712 5710 5708 5707 5706 5706 5702 5700 5697 5695 5694 5691 5688 5688 5687 5685 5682 5678 5675 5673 5670 5669
5748 5746 5745 5742 5739 5736 5733 5731 5729 5727 5725 5723 5721 5720 5718 5716 5712 5710 5707 5708 5707 5706 5705 5703 5701 5699 5696 5693 5692 5690 5688 5687 5684 5681 5679 5677 5674 5672 5670 5669 5668 5665 5664
5740 5739 5738 5735 5731 5728 5727 5725 5724 5722 5720 5719 5717 5715 5713 5711 5707 5703 5700 5703 5702 5700 5698 5696 5692 5691 5687 5684 5684 5683 5681 5681 5679 5676 5672 5669 5667 5665 5662 5661 5661 5659 5659
5732 5730 5729 5726 5724 5722 5720 5718 5716 5715 5714 5713 5710 5709 5707 5704 5701 5697 5694 5695 5696 5694 5692 5691 5689 5682 5679 5676 5675 5676 5674 5672 5671 5669 5668 5666 5663 5660 5658 5655 5654 5653 5652
5721 5720 5719 5717 5716 5715 5712 5711 5709 5708 5706 5704 5703 5701 5700 5698 5695 5690 5686 5685 5685 5685 5684 5684 5680 5673 5670 5667 5666 5665 5663 5661 5663 5663 5662 5660 5658 5656 5653 5650 5646 5644 5642
5710 5708 5707 5706 5706 5705 5704 5702 5701 5700 5700 5699 5697 5695 5693 5691 5688 5682 5678 5676 5674 5674 5675 5671 5667 5663 5660 5659 5656 5655 5654 5656 5657 5655 5654 5653 5652 5650 5646 5642 5639 5636 5633
5700 5699 5698 5697 5697 5696 5695 5695 5694 5694 5692 5691 5689 5686 5685 5682 5680 5676 5673 5669 5664 5663 5662 5658 5655 5653 5652 5651 5649 5649 5649 5650 5649 5647 5646 5645 5643 5641 5638 5636 5633 5630 5627
5691 5690 5690 5690 5689 5686 5685 5684 5684 5682 5681 5679 5679 5678 5676 5674 5670 5664 5662 5661 5658 5655 5650 5649 5649 5648 5647 5646 5645 5643 5643 5642 5640 5640 5637 5636 5634 5632 5630 5628 5625 5623 5621
5681 5682 5682 5681 5680 5679 5677 5675 5672 5670 5668 5665 5664 5663 5664 5660 5655 5652 5649 5647 5644 5641 5639 5641 5641 5640 5639 5638 5636 5634 5633 5632 5631 5631 5629 5628 5625 5623 5621 5619 5616 5615 5613
5671 5672 5673 5672 5672 5670 5667 5666 5664 5660 5656 5654 5652 5651 5649 5646 5643 5641 5639 5635 5632 5628 5630 5632 5631 5630 5629 5628 5626 5625 5623 5622 5621 5620 5619 5617 5616 5614 5613 5610 5608 5606 5604
5663 5663 5663 5663 5663 5662 5659 5657 5655 5654 5651 5649 5643 5639 5637 5635 5632 5629 5627 5625 5624 5622 5623 5623 5621 5621 5620 5619 5617 5615 5614 5612 5610 5609 5608 5607 5606 5604 5603 5602 5600 5597 5596
5654 5654 5654 5654 5653 5652 5649 5647 5646 5644 5642 5640 5637 5632 5626 5624 5622 5619 5617 5619 5620 5618 5617 5615 5614 5613 5612 5609 5607 5605 5604 5602 5600 5599 5598 5596 5595 5594 5593 5591 5590 5585 5585
5643 5642 5642 5643 5643 5642 5640 5638 5636 5634 5633 5630 5628 5626 5622 5619 5619 5615 5613 5613 5613 5611 5609 5607 5605 5604 5602 5600 5598 5596 5594 5593 5591 5590 5589 5587 5586 5585 5583 5582 5581 5580 5578
5635 5634 5631 5633 5633 5631 5630 5629 5627 5625 5623 5621 5620 5618 5613 5615 5613 5611 5608 5606 5604 5602 5600 5598 5596 5595 5593 5591 5590 5588 5586 5585 5584 5582 5580 5578 5577 5576 5575 5574 5572 5571 5570
5625 5626 5625 5625 5623 5621 5620 5619 5618 5616 5614 5613 5611 5610 5604 5606 5607 5605 5602 5599 5596 5593 5591 5589 5588 5587 5585 5584 5582 5579 5577 5576 5575 5573 5571 5569 5567 5567 5567 5566 5564 5562 5560
5616 5617 5616 5616 5615 5612 5612 5612 5610 5608 5606 5606 5604 5603 5600 5599 5598 5596 5594 5592 5589 5586 5584 5582 5580 5578 5576 5573 5571 5569 5569 5567 5566 5564 5562 5561 5560 5559 5558 5557 5555 5554 5553
5609 5609 5608 5607 5606 5606 5606 5605 5604 5602 5600 5598 5597 5596 5594 5591 5590 5588 5586 5584 5581 5579 5577 5574 5572 5569 5567 5564 5562 5561 5559 5557 5556 5555 5553 5552 5552 5552 5551 5550 5549 5547 5545
5602 5601 5601 5600 5599 5599 5598 5598 5597 5596 5594 5592 5590 5588 5586 5584 5582 5580 5579 5576 5574 5571 5569 5566 5564 5561 5558 5555 5553 5551 5548 5546 5544 5544 5543 5544 5544 5543 5542 5541 5540 5539 5537
5594 5593 5593 5592 5592 5592 5591 5590 5589 5588 5587 5585 5584 5582 5580 5578 5576 5574 5572 5570 5568 5565 5562 5559 5556 5553 5550 5547 5544 5541 5538 5537 5535 5533 5534 5535 5535 5535 5533 5533 5532 5531 5530